User: anonymous
Location: Caltech
(34.1382°N, 118.1253°W)
Time: 02:49:24
(UTC-07:00)
Language:

Iridium 62 - Orbit

View from above orbital plane
View from above orbital plane
View from above satellite
View from above satellite

Ground track
Ground track

The orbit data is extracted from the following two-line orbital elements,

1 25285U 98021A   14261.43079317  .00000160  00000-0  50072-4 0  9254
2 25285 086.3919 283.0494 0002389 104.7713 255.3747 14.34218775861296
Epoch (UTC): 18 September 2014 10:20:20
Eccentricity: 0.0002389
inclination: 86.3919°
perigee height: 776 km
apogee height: 779 km
right ascension of ascending node: 283.0494°
argument of perigee: 104.7713°
revolutions per day: 14.34218775
mean anomaly at epoch: 255.3747°
orbit number at epoch: 86129

The dashed part of the orbit path shows where the satellite is in the earth's shadow,  

DLR